This is the latest recevied weather packets stored in our database for station/object W0WC. If no packets are shown the sender has not sent any weather packets the latest 10 day(s).
| Time | Temp. | Humidity | Pressure | Rain* | Wind** | Luminosity | Snow |
|---|---|---|---|---|---|---|---|
| 1777484458 | 16.11° C | 56% | 1019.9 hPa | 0 mm | - | 810 W/m² | - |
| 1777484155 | 15.56° C | 57% | 1019.8 hPa | 0 mm | - | 802 W/m² | - |
| 1777483851 | 15.56° C | 56% | 1019.9 hPa | 0 mm | - | 778 W/m² | - |
| 1777483548 | 15.56° C | 58% | 1020 hPa | 0 mm | - | 779 W/m² | - |
| 1777483243 | 15° C | 58% | 1020.1 hPa | 0 mm | - | 787 W/m² | - |
| 1777482939 | 15.56° C | 60% | 1020 hPa | 0 mm | - | 792 W/m² | - |
| 1777482635 | 14.44° C | 62% | 1019.8 hPa | 0 mm | - | 735 W/m² | - |
| 1777482333 | 14.44° C | 59% | 1020 hPa | 0 mm | - | 748 W/m² | - |
| 1777482030 | 14.44° C | 59% | 1019.9 hPa | 0 mm | - | 589 W/m² | - |
| 1777481727 | 14.44° C | 62% | 1020 hPa | 0 mm | - | 755 W/m² | - |
| 1777481425 | 13.89° C | 64% | 1019.9 hPa | 0 mm | - | 609 W/m² | - |
| 1777481121 | 14.44° C | 64% | 1020.2 hPa | 0 mm | - | 417 W/m² | - |
| 1777480817 | 14.44° C | 63% | 1020 hPa | 0 mm | - | 448 W/m² | - |
| 1777480514 | 13.89° C | 66% | 1020 hPa | 0 mm | - | 709 W/m² | - |
| 1777480211 | 13.89° C | 67% | 1020.4 hPa | 0 mm | - | 601 W/m² | - |
| 1777479908 | 13.89° C | 66% | 1020.3 hPa | 0 mm | - | 675 W/m² | - |
| 1777479604 | 13.33° C | 64% | 1020.5 hPa | 0 mm | - | 650 W/m² | - |
| 1777479302 | 13.33° C | 65% | 1020.2 hPa | 0 mm | - | 674 W/m² | - |
| 1777478998 | 12.78° C | 65% | 1020.3 hPa | 0 mm | - | 469 W/m² | - |
| 1777478695 | 13.33° C | 66% | 1020.4 hPa | 0 mm | - | 394 W/m² | - |
| 1777478391 | 13.33° C | 67% | 1020.4 hPa | 0 mm | - | 419 W/m² | - |
| 1777478088 | 12.78° C | 67% | 1020.4 hPa | 0 mm | - | 403 W/m² | - |
| 1777477784 | 12.78° C | 64% | 1020.5 hPa | 0 mm | - | 479 W/m² | - |
| 1777477480 | 13.33° C | 64% | 1020.5 hPa | 0 mm | - | 362 W/m² | - |
| 1777477177 | 13.33° C | 66% | 1020.7 hPa | 0 mm | - | 315 W/m² | - |
* Rain latest hour (hover to see other rain measurements)
** Current wind speed in m/s (hover to see current wind gust speed)